1514800801.23,457,8.5,72738.0,2.21,-19.65,-19.81,0,*70
1514800802.44,458,8.5,72736.5,2.19,-19.81,-19.99,0,*77
1514800803.63,459,8.5,72736.8,2.19,-19.95,-20.09,0,*70
1514800804.85,460,8.5,72738.8,2.21,-19.91,-19.95,0,*7A
1514800806.04,461,8.5,72736.3,2.23,-19.91,-20.09,0,*76
1514800807.24,462,8.5,72734.8,2.23,-19.95,-20.09,0,*71
1514800808.44,463,8.5,72734.8,2.23,-19.81,-20.09,0,*75
1514800809.65,464,8.5,72736.5,2.23,-19.81,-20.09,0,*72
1514800810.84,465,8.5,72736.3,2.23,-19.75,-19.95,0,*77
1514800812.06,466,8.5,72736.3,2.23,-19.65,-19.95,0,*75
1514800813.28,467,8.5,72732.3,2.25,-19.47,-19.75,0,*7C
1514800814.5,468,8.5,72736.0,2.23,-19.61,-19.91,0,*7B
1514800815.72,469,8.5,72734.0,2.23,-19.61,-19.91,0,*7A
1514800816.94,470,8.5,72736.8,2.23,-19.61,-19.91,0,*72
1514800818.13,471,8.5,72732.0,2.23,-19.91,-20.09,0,*77
1514800819.35,472,8.5,72736.5,2.25,-19.75,-20.05,0,*74
1514800820.59,473,8.5,72736.3,2.25,-19.61,-19.99,0,*7F
1514800821.82,474,8.5,72736.8,2.27,-19.61,-20.05,0,*75
1514800823.06,475,8.5,72738.3,2.25,-19.61,-19.99,0,*79
1514800824.31,476,8.5,72734.8,2.25,-19.57,-19.99,0,*7F
1514800825.56,477,8.5,72734.8,2.25,-19.61,-20.05,0,*74
1514800826.8,478,8.5,72734.0,2.25,-19.47,-19.85,0,*7D
1514800828.0,479,8.5,72738.0,2.27,-19.47,-19.91,0,*7B
1514800829.21,480,8.5,72734.5,2.29,-19.51,-19.99,0,*7C
1514800830.44,481,8.5,72738.0,2.27,-19.57,-20.05,0,*7A
1514800831.66,482,8.5,72734.0,2.27,-19.57,-20.05,0,*79
1514800832.88,483,8.5,72738.0,2.27,-19.71,-20.15,0,*7D
1514800834.1,484,8.5,72734.3,2.27,-19.61,-20.05,0,*7A
1514800835.35,485,8.5,72736.8,2.27,-19.61,-20.19,0,*76
1514800836.57,486,8.5,72734.0,2.29,-19.71,-20.29,0,*79
1514800837.8,487,8.5,72732.5,2.27,-19.61,-20.25,0,*7B
1514800839.05,488,8.5,72738.8,2.27,-19.61,-20.19,0,*7B
1514800840.24,489,8.5,72738.3,2.27,-19.75,-20.25,0,*70
1514800841.47,490,8.5,72732.0,2.27,-19.61,-20.25,0,*7D
1514800842.7,491,8.5,72738.8,2.27,-19.57,-20.25,0,*79
1514800843.9,492,8.5,72738.0,2.27,-19.75,-20.39,0,*77
1514800845.1,493,8.5,72738.8,2.27,-19.71,-20.39,0,*72
1514800846.31,494,8.5,72734.8,2.27,-19.71,-20.39,0,*75
1514800847.54,495,8.5,72738.0,2.29,-19.81,-20.59,0,*73
1514800848.77,496,8.5,72734.3,2.29,-19.71,-20.43,0,*74
1514800850.01,497,8.5,72738.3,2.29,-19.71,-20.49,0,*7F
1514800851.26,498,8.5,72738.5,2.25,-19.91,-20.53,0,*79
1514800852.45,499,8.5,72738.8,2.27,-19.91,-20.69,0,*73
1514800853.65,500,8.5,72738.3,2.27,-19.75,-20.63,0,*72
1514800854.88,501,8.5,72736.5,2.27,-19.71,-20.49,0,*7F
1514800856.15,502,8.5,72738.3,2.33,-19.57,-20.35,0,*76
1514800857.37,503,8.5,72732.8,2.27,-19.75,-20.53,0,*72
1514800858.6,504,8.5,72736.0,2.29,-19.81,-20.73,0,*72
1514800859.83,505,8.5,72734.0,2.27,-19.71,-20.49,0,*7B
1514800861.08,506,8.5,72736.5,2.33,-19.65,-20.59,0,*79
1514800862.3,507,8.5,72736.3,2.29,-19.71,-20.63,0,*7F
1514800863.53,508,8.5,72732.5,2.27,-19.61,-20.63,0,*7F
1514800864.75,509,8.5,72738.8,2.29,-19.51,-20.43,0,*71
1514800866.02,510,8.5,72736.3,2.29,-19.41,-20.49,0,*72
1514800867.25,511,8.5,72734.5,2.27,-19.61,-20.63,0,*77
1514800868.48,512,8.5,72732.0,2.27,-19.61,-20.63,0,*74
1514800869.73,513,8.5,72732.5,2.29,-19.51,-20.49,0,*70
1514800870.96,514,8.5,72732.8,2.27,-19.57,-20.63,0,*77
1514800872.16,515,8.5,72736.0,2.27,-19.47,-20.63,0,*77
1514800873.38,516,8.5,72734.8,2.27,-19.57,-20.69,0,*7F
1514800874.63,517,8.5,72734.5,2.29,-19.57,-20.89,0,*7E
1514800875.88,518,8.5,72738.5,2.27,-19.57,-20.83,0,*75
1514800877.13,519,8.5,72736.3,2.29,-19.65,-20.89,0,*71
1514800878.33,520,8.5,72734.5,2.27,-19.71,-20.93,0,*7B
1514800879.58,521,8.5,72738.3,2.27,-19.57,-20.79,0,*7A
1514800880.8,522,8.5,72736.0,2.29,-19.51,-20.73,0,*7B
1514800882.04,523,8.5,72732.3,2.29,-19.51,-20.79,0,*70
1514800883.28,524,8.5,72736.3,2.29,-19.51,-20.79,0,*77
1514800884.53,525,8.5,72734.5,2.27,-19.57,-20.83,0,*7B
1514800885.77,526,8.5,72730.5,2.29,-19.41,-20.89,0,*7B
1514800887.0,527,8.5,72736.3,2.27,-19.57,-20.93,0,*78
1514800888.25,528,8.5,72734.0,2.27,-19.61,-20.99,0,*78
1514800889.5,529,8.5,72736.3,2.27,-19.61,-20.99,0,*79
1514800890.72,530,8.5,72732.3,2.29,-19.71,-21.17,0,*79
1514800891.92,531,8.5,72736.0,2.27,-19.71,-21.13,0,*72
1514800893.13,532,8.5,72734.8,2.27,-19.85,-21.43,0,*7F
1514800894.35,533,8.5,72734.3,2.27,-19.61,-21.13,0,*71
1514800895.58,534,8.5,72734.8,2.27,-19.71,-21.23,0,*74
1514800896.8,535,8.5,72736.0,2.27,-19.61,-21.13,0,*77
1514800898.06,536,8.5,72732.5,2.29,-19.41,-21.03,0,*79
1514800899.31,537,8.5,72732.8,2.27,-19.57,-20.99,0,*73
1514800900.53,538,8.5,72732.0,2.27,-19.75,-21.33,0,*7D
1514800901.72,539,8.5,72732.0,2.27,-19.99,-21.63,0,*7B
1514800902.91,540,8.5,72734.8,2.27,-19.91,-21.47,0,*7B
1514800904.13,541,8.5,72736.3,2.27,-19.99,-21.57,0,*73
1514800905.34,542,8.5,72730.8,2.27,-20.05,-21.57,0,*7F
1514800906.58,543,8.5,72736.5,2.25,-19.75,-21.33,0,*73
1514800907.79,544,8.5,72732.5,2.25,-19.75,-21.43,0,*73
1514800908.97,545,8.5,72736.8,2.27,-20.05,-21.63,0,*7F
1514800910.16,546,8.5,72732.5,2.27,-19.75,-21.43,0,*73
1514800911.41,547,8.5,72734.0,2.27,-19.61,-21.33,0,*70
1514800912.6,548,8.5,72734.5,2.27,-19.75,-21.43,0,*7D
1514800913.84,549,8.5,72734.8,2.25,-19.99,-21.57,0,*79
1514800915.02,550,8.5,72730.8,2.27,-20.05,-21.77,0,*7E
1514800916.26,551,8.5,72732.8,2.27,-20.15,-21.87,0,*71
1514800917.5,552,8.5,72734.5,2.25,-20.15,-21.93,0,*75
1514800918.69,553,8.5,72732.0,2.23,-20.09,-21.93,0,*7F
1514800919.88,554,8.5,72730.5,2.23,-19.95,-21.63,0,*78
1514800921.09,555,8.5,72734.3,2.25,-19.91,-21.77,0,*7E
1514800922.3,556,8.5,72728.5,2.25,-20.05,-21.63,0,*7F
1514800923.5,557,8.5,72730.8,2.23,-19.95,-21.77,0,*7E
1514800924.71,558,8.5,72734.0,2.25,-19.91,-21.77,0,*73
1514800925.95,559,8.5,72732.5,2.25,-19.85,-21.73,0,*73
1514800927.13,560,8.5,72732.0,2.23,-20.25,-22.07,0,*7F
1514800928.32,561,8.5,72732.8,2.23,-20.25,-22.27,0,*7C
1514800929.53,562,8.5,72734.5,2.25,-19.91,-21.73,0,*7E
1514800930.72,563,8.5,72732.0,2.23,-19.95,-21.77,0,*79
1514800931.99,564,8.5,72734.0,2.25,-20.19,-22.17,0,*73
1514800933.2,565,8.5,72734.0,2.23,-20.25,-22.21,0,*7E
1514800934.41,566,8.5,72736.0,2.23,-20.09,-21.97,0,*7D
1514800935.59,567,8.5,72734.0,2.23,-20.09,-22.07,0,*76
1514800936.82,568,8.5,72732.5,2.25,-20.19,-22.07,0,*7E
1514800938.01,569,8.5,72728.3,2.23,-20.09,-22.07,0,*78
1514800939.19,570,8.5,72732.0,2.23,-20.09,-22.11,0,*77
1514800940.37,571,8.5,72732.0,2.23,-20.09,-22.07,0,*71
1514800941.56,572,8.5,72734.0,2.23,-20.09,-21.93,0,*7C
1514800942.74,573,8.5,72734.5,2.23,-20.25,-22.27,0,*7F
1514800943.97,574,8.5,72732.8,2.23,-20.43,-22.47,0,*7E
1514800945.16,575,8.5,72732.0,2.23,-20.69,-22.63,0,*71
1514800946.4,576,8.5,72734.0,2.23,-20.83,-22.77,0,*73
1514800947.63,577,8.5,72732.0,2.23,-20.43,-22.47,0,*7D
1514800948.84,578,8.5,72732.8,2.25,-20.39,-22.41,0,*7F
1514800950.06,579,8.5,72732.0,2.23,-20.43,-22.47,0,*73
1514800951.29,580,8.5,72732.5,2.23,-20.43,-22.47,0,*75
1514800952.49,581,8.5,72734.5,2.23,-20.59,-22.63,0,*79
1514800953.69,582,8.5,72732.3,2.23,-20.73,-22.73,0,*73
1514800954.91,583,8.5,72728.0,2.23,-20.83,-22.63,0,*7C
1514800956.13,584,8.5,72730.5,2.23,-20.53,-22.57,0,*71
1514800957.37,585,8.5,72732.8,2.25,-20.99,-22.97,0,*7C
1514800958.62,586,8.5,72732.5,2.21,-20.99,-22.87,0,*7A
1514800959.89,587,8.5,72732.0,2.21,-21.03,-23.03,0,*74
1514800961.13,588,8.5,72730.0,2.23,-20.83,-22.77,0,*72
1514800962.35,589,8.5,72730.3,2.21,-20.89,-22.87,0,*74
1514800963.57,590,8.5,72732.5,2.23,-20.99,-22.87,0,*7F
1514800964.81,591,8.5,72728.3,2.21,-20.89,-22.77,0,*72
1514800966.06,592,8.5,72730.0,2.21,-21.03,-22.87,0,*7D
1514800967.33,593,8.5,72730.8,2.21,-21.03,-23.03,0,*71
1514800968.58,594,8.5,72730.8,2.21,-21.03,-23.09,0,*7C
1514800969.85,595,8.5,72730.8,2.21,-21.03,-23.03,0,*77
1514800971.06,596,8.5,72732.5,2.19,-21.39,-23.29,0,*7E
1514800972.3,597,8.5,72734.0,2.21,-21.43,-23.23,0,*73
1514800973.55,598,8.5,72732.5,2.21,-21.03,-22.93,0,*72
1514800974.83,599,8.5,72732.5,2.21,-21.27,-23.19,0,*76
1514800976.03,600,8.5,72732.5,2.19,-21.39,-23.29,0,*72
1514800977.28,601,8.5,72730.5,2.19,-21.53,-23.33,0,*74
1514800978.47,602,8.56,72732.8,2.19,-21.39,-23.13,0,*79
1514800979.71,603,8.5,72732.8,2.19,-21.33,-23.23,0,*71
1514800980.92,604,8.5,72732.8,2.19,-21.33,-23.13,0,*75
1514800982.17,605,8.5,72734.0,2.19,-21.53,-23.33,0,*70
1514800983.38,606,8.5,72728.8,2.19,-21.43,-23.33,0,*72
1514800984.62,607,8.5,72732.5,2.19,-21.67,-23.33,0,*75
1514800985.86,608,8.5,72732.5,2.19,-21.57,-23.29,0,*72
1514800987.1,609,8.5,72732.5,2.19,-21.53,-23.33,0,*7C
1514800988.32,610,8.5,72728.3,2.19,-21.87,-23.59,0,*71
1514800989.53,611,8.5,72728.8,2.19,-21.73,-23.29,0,*7C
1514800990.74,612,8.5,72730.5,2.17,-21.77,-23.39,0,*74
1514800991.95,613,8.5,72730.3,2.15,-21.63,-23.33,0,*78
1514800993.17,614,8.5,72732.3,2.17,-21.73,-23.39,0,*76
1514800994.36,615,8.5,72732.0,2.15,-21.77,-23.39,0,*71
1514800995.57,616,8.5,72730.3,2.17,-21.73,-23.39,0,*74
1514800996.79,617,8.5,72730.5,2.17,-21.77,-23.39,0,*71
1514800998.0,618,8.5,72732.5,2.15,-22.03,-23.53,0,*70
1514800999.21,619,8.5,72732.3,2.15,-22.03,-23.49,0,*7A
1514801000.45,620,8.5,72730.0,2.15,-21.87,-23.49,0,*7F
1514801001.7,621,8.5,72730.5,2.17,-21.77,-23.19,0,*76
1514801002.93,622,8.5,72730.0,2.17,-22.07,-23.53,0,*7F
1514801004.19,623,8.5,72730.5,2.17,-22.17,-23.69,0,*76
1514801005.4,624,8.5,72732.5,2.15,-22.07,-23.53,0,*7B
1514801006.61,625,8.5,72728.0,2.17,-22.03,-23.39,0,*70
1514801007.82,626,8.5,72728.0,2.15,-22.03,-23.33,0,*7B
1514801009.06,627,8.5,72732.3,2.17,-22.17,-23.39,0,*77
1514801010.3,628,8.5,72726.8,2.15,-22.17,-23.53,0,*76
1514801011.54,629,8.5,72728.5,2.15,-22.17,-23.53,0,*77
1514801012.75,630,8.5,72728.3,2.15,-22.07,-23.49,0,*75
1514801013.99,631,8.56,72734.0,2.15,-22.21,-23.53,0,*7B
1514801015.23,632,8.5,72732.5,2.15,-22.21,-23.49,0,*73
1514801016.47,633,8.5,72730.3,2.15,-22.21,-23.49,0,*72
1514801017.7,634,8.5,72730.3,2.15,-22.21,-23.53,0,*7E
1514801018.94,635,8.5,72730.5,2.13,-22.27,-23.53,0,*7F
1514801020.19,636,8.5,72730.8,2.13,-22.21,-23.43,0,*7B
1514801021.4,637,8.5,72730.5,2.15,-22.17,-23.39,0,*74
1514801022.62,638,8.5,72732.8,2.11,-22.21,-23.39,0,*7A
1514801023.87,639,8.5,72730.0,2.13,-22.21,-23.43,0,*74
1514801025.09,640,8.5,72730.3,2.13,-22.37,-23.43,0,*7D
1514801026.31,641,8.5,72730.5,2.13,-22.27,-23.43,0,*7D
1514801027.53,642,8.5,72732.8,2.13,-22.37,-23.43,0,*7F
1514801028.78,643,8.5,72728.3,2.13,-22.47,-23.43,0,*79
1514801030.05,644,8.5,72730.5,2.13,-22.47,-23.53,0,*7F
1514801031.27,645,8.5,72732.5,2.13,-22.37,-23.43,0,*78
1514801032.48,646,8.5,72728.0,2.13,-22.41,-23.39,0,*77
1514801033.73,647,8.5,72732.5,2.13,-22.47,-23.43,0,*7D
1514801034.96,648,8.5,72728.5,2.13,-22.63,-23.53,0,*75
1514801036.17,649,8.5,72724.8,2.11,-22.63,-23.53,0,*76
1514801037.39,650,8.5,72726.3,2.11,-22.63,-23.53,0,*7E
1514801038.6,651,8.5,72728.3,2.13,-22.57,-23.39,0,*76
1514801039.85,652,8.5,72728.3,2.13,-22.73,-23.43,0,*7E
1514801041.1,653,8.5,72726.0,2.13,-22.77,-23.43,0,*7B
1514801042.29,654,8.5,72728.0,2.11,-22.57,-23.39,0,*71
1514801043.51,655,8.5,72726.3,2.11,-22.41,-23.23,0,*7C
1514801044.73,656,8.5,72728.3,2.13,-22.57,-23.39,0,*71
1514801045.93,657,8.5,72728.5,2.11,-22.57,-23.39,0,*72
1514801047.12,658,8.5,72726.8,2.11,-22.57,-23.39,0,*7D
1514801048.36,659,8.5,72726.3,2.13,-22.57,-23.33,0,*74
1514801049.59,660,8.5,72726.8,2.11,-22.57,-23.33,0,*7C
1514801050.82,661,8.5,72730.3,2.13,-22.63,-23.33,0,*78
1514801052.04,662,8.5,72730.0,2.11,-22.77,-23.39,0,*76
1514801053.23,663,8.5,72724.8,2.11,-22.63,-23.39,0,*72
1514801054.44,664,8.5,72730.5,2.13,-22.87,-23.39,0,*7D
1514801055.65,665,8.5,72728.8,2.13,-22.87,-23.39,0,*7C
1514801056.88,666,8.5,72728.0,2.13,-22.73,-23.39,0,*74
1514801058.11,667,8.5,72730.5,2.11,-22.57,-23.23,0,*7A
1514801059.33,668,8.5,72730.3,2.11,-22.57,-23.33,0,*74
1514801060.53,669,8.5,72730.8,2.11,-22.41,-23.09,0,*7B
1514801061.73,670,8.5,72730.8,2.11,-22.57,-23.09,0,*74
1514801062.95,671,8.5,72730.5,2.11,-22.63,-23.23,0,*7A
1514801064.19,672,8.5,72728.3,2.11,-22.73,-23.23,0,*78
1514801065.41,673,8.5,72728.5,2.11,-22.87,-23.23,0,*72
1514801066.65,674,8.5,72730.0,2.11,-22.73,-23.23,0,*7E
1514801067.9,675,8.5,72730.0,2.11,-22.77,-23.33,0,*7A
1514801069.15,676,8.5,72728.5,2.11,-22.77,-23.23,0,*78
1514801070.35,677,8.56,72730.3,2.11,-22.93,-23.39,0,*78
1514801071.6,678,8.5,72726.5,2.11,-22.77,-23.19,0,*7F
1514801072.82,679,8.5,72728.5,2.11,-22.93,-23.33,0,*7C
1514801074.06,680,8.5,72728.5,2.13,-22.87,-23.23,0,*7C
1514801075.28,681,8.5,72730.0,2.11,-22.77,-23.09,0,*78
1514801076.51,682,8.5,72726.8,2.11,-22.57,-23.03,0,*73
1514801077.76,683,8.5,72726.5,2.11,-22.77,-23.19,0,*7B
1514801078.98,684,8.5,72726.8,2.11,-22.73,-22.93,0,*7B
1514801080.17,685,8.5,72730.8,2.11,-22.63,-22.93,0,*7B
1514801081.39,686,8.5,72726.0,2.07,-22.77,-23.09,0,*78
1514801082.58,687,8.5,72724.8,2.11,-22.63,-22.93,0,*79
1514801083.8,688,8.5,72728.0,2.07,-22.53,-22.77,0,*78
1514801084.99,689,8.5,72726.0,2.07,-22.67,-22.93,0,*74
1514801086.21,690,8.5,72728.0,2.07,-22.77,-22.93,0,*7D
1514801087.43,691,8.5,72724.0,2.11,-22.57,-22.77,0,*73
1514801088.63,692,8.5,72726.3,2.11,-22.41,-22.63,0,*72
1514801089.87,693,8.5,72724.8,2.11,-22.47,-22.73,0,*74
1514801091.11,694,8.5,72726.5,2.13,-22.57,-22.73,0,*70
1514801092.36,695,8.5,72726.5,2.13,-22.77,-22.93,0,*7D
1514801093.58,696,8.5,72728.5,2.11,-22.63,-22.77,0,*73
1514801094.79,697,8.5,72724.5,2.11,-22.63,-22.77,0,*72
1514801096.01,698,8.5,72728.3,2.11,-22.87,-23.03,0,*75
1514801097.23,699,8.5,72730.0,2.11,-22.77,-22.93,0,*73
1514801098.46,700,8.5,72724.3,2.11,-22.77,-22.87,0,*77
1514801099.7,701,8.5,72726.3,2.11,-22.73,-22.77,0,*7D
1514801100.91,702,8.56,72730.3,2.07,-22.77,-22.83,0,*76
1514801102.14,703,8.5,72726.8,2.11,-22.47,-22.57,0,*7A
1514801103.32,704,8.5,72724.0,2.11,-22.41,-22.41,0,*7C
1514801104.52,705,8.5,72724.3,2.11,-22.57,-22.57,0,*7D
1514801105.71,706,8.5,72726.0,2.11,-22.63,-22.63,0,*7E
1514801106.92,707,8.56,72728.0,2.11,-22.63,-22.73,0,*7E
1514801108.12,708,8.5,72726.0,2.11,-22.63,-22.63,0,*70
1514801109.34,709,8.5,72724.8,2.11,-22.77,-22.63,0,*74
1514801110.56,710,8.5,72724.5,2.11,-22.73,-22.63,0,*78
1514801111.76,711,8.5,72726.5,2.11,-22.57,-22.57,0,*78
1514801112.95,712,8.5,72726.8,2.11,-22.57,-22.41,0,*7C
1514801114.16,713,8.5,72726.8,2.13,-22.63,-22.57,0,*7F
1514801115.39,714,8.5,72722.3,2.11,-22.77,-22.63,0,*78
1514801116.61,715,8.5,72726.8,2.11,-22.77,-22.63,0,*79
1514801117.82,716,8.56,72728.0,2.11,-22.87,-22.73,0,*74
1514801119.09,717,8.5,72724.0,2.13,-22.77,-22.73,0,*78
1514801120.34,718,8.5,72726.0,2.13,-22.77,-22.63,0,*76
1514801121.6,719,8.5,72724.0,2.13,-22.77,-22.73,0,*76
1514801122.8,720,8.5,72726.8,2.11,-22.87,-22.63,0,*70
1514801124.02,721,8.5,72724.3,2.11,-22.77,-22.63,0,*7E
1514801125.24,722,8.5,72724.8,2.11,-22.73,-22.57,0,*7E
1514801126.45,723,8.5,72726.3,2.13,-22.87,-22.57,0,*76
1514801127.66,724,8.5,72722.5,2.11,-22.87,-22.73,0,*75
1514801128.85,725,8.5,72726.0,2.11,-22.57,-22.41,0,*78
1514801130.07,726,8.5,72724.5,2.11,-22.47,-22.37,0,*7B
1514801131.26,727,8.5,72720.0,2.11,-22.63,-22.57,0,*7A
1514801132.45,728,8.5,72726.5,2.11,-22.63,-22.57,0,*75
1514801133.64,729,8.5,72726.3,2.11,-22.63,-22.41,0,*73
1514801134.83,730,8.5,72724.3,2.11,-22.63,-22.57,0,*7C
1514801136.02,731,8.5,72726.3,2.11,-22.57,-22.41,0,*7D
1514801137.23,732,8.5,72724.8,2.11,-22.73,-22.57,0,*7F
1514801138.48,733,8.5,72724.8,2.11,-22.77,-22.73,0,*7C
1514801139.73,734,8.5,72726.3,2.13,-22.77,-22.63,0,*78
1514801140.94,735,8.5,72724.8,2.11,-22.73,-22.57,0,*78
1514801142.15,736,8.5,72726.0,2.11,-22.73,-22.41,0,*7C
1514801143.39,737,8.5,72724.5,2.13,-22.73,-22.57,0,*78
1514801144.61,738,8.5,72720.5,2.13,-22.87,-22.63,0,*7B
1514801145.83,739,8.5,72722.5,2.11,-22.77,-22.63,0,*77
1514801147.05,740,8.5,72720.3,2.11,-22.73,-22.63,0,*7D
1514801148.27,741,8.5,72720.3,2.11,-22.73,-22.63,0,*7C
1514801149.46,742,8.56,72726.3,2.11,-22.63,-22.57,0,*79
1514801150.67,743,8.5,72724.0,2.11,-22.93,-22.73,0,*71
1514801151.92,744,8.5,72724.8,2.13,-23.03,-22.93,0,*72
1514801153.14,745,8.56,72726.5,2.11,-22.87,-22.77,0,*76
1514801154.33,746,8.5,72724.8,2.11,-23.09,-22.93,0,*78
1514801155.56,747,8.5,72720.5,2.11,-22.93,-22.77,0,*71
1514801156.78,748,8.5,72722.3,2.11,-22.77,-22.63,0,*71
1514801157.97,749,8.5,72722.8,2.07,-22.83,-22.67,0,*78
1514801159.21,750,8.5,72720.3,2.05,-22.83,-22.73,0,*77
1514801160.39,751,8.5,72720.5,2.07,-22.83,-22.67,0,*71
1514801161.61,752,8.5,72720.5,2.07,-22.77,-22.67,0,*79
1514801162.84,753,8.5,72722.8,2.05,-22.87,-22.73,0,*70
1514801164.06,754,8.5,72722.3,2.07,-22.77,-22.63,0,*7B
1514801165.25,755,8.56,72726.8,2.07,-22.67,-22.63,0,*7B
1514801166.49,756,8.5,72722.8,2.05,-22.73,-22.67,0,*7B
1514801167.68,757,8.5,72722.8,2.07,-22.97,-22.93,0,*79
1514801168.87,758,8.5,72720.8,2.07,-23.13,-22.97,0,*7F
1514801170.06,759,8.5,72720.5,2.07,-23.13,-23.09,0,*78
1514801171.26,760,8.5,72724.3,2.07,-22.97,-22.93,0,*7D
1514801172.47,761,8.5,72720.3,2.07,-22.77,-22.67,0,*79
1514801173.66,762,8.5,72720.0,2.07,-22.67,-22.63,0,*7F
1514801174.88,763,8.5,72720.5,2.07,-22.77,-22.63,0,*7F
1514801176.07,764,8.5,72722.0,2.07,-22.67,-22.63,0,*79
1514801177.26,765,8.5,72722.3,2.07,-22.57,-22.63,0,*7B
1514801178.47,766,8.5,72718.0,2.07,-22.67,-22.73,0,*7A
1514801179.71,767,8.5,72718.5,2.05,-22.73,-22.67,0,*79
1514801180.89,768,8.5,72722.5,2.07,-22.63,-22.63,0,*71
1514801182.11,769,8.5,72722.0,2.07,-22.67,-22.47,0,*72
1514801183.32,770,8.5,72722.0,2.07,-22.77,-22.67,0,*79
1514801184.51,771,8.5,72722.8,2.07,-22.83,-22.93,0,*78
1514801185.73,772,8.5,72720.5,2.07,-22.83,-22.77,0,*71
1514801186.91,773,8.5,72718.5,2.07,-22.67,-22.67,0,*7B
1514801188.12,774,8.5,72720.8,2.07,-22.67,-22.77,0,*7D
1514801189.37,775,8.5,72720.8,2.11,-22.77,-22.77,0,*7A
1514801190.62,776,8.5,72720.3,2.11,-22.77,-22.73,0,*7D
1514801191.83,777,8.5,72720.5,2.05,-22.83,-22.83,0,*7D
1514801193.03,778,8.5,72720.0,2.07,-22.93,-22.93,0,*70
1514801194.24,779,8.5,72720.8,2.07,-22.77,-22.83,0,*7A
1514801195.46,780,8.5,72720.0,2.07,-22.93,-22.77,0,*7D
1514801196.64,781,8.5,72720.8,2.07,-22.83,-22.83,0,*76
1514801197.87,782,8.5,72722.3,2.11,-22.77,-22.87,0,*7D
1514801199.07,783,8.56,72722.8,2.11,-22.93,-22.93,0,*73
1514801200.26,784,8.5,72720.0,2.07,-22.93,-22.83,0,*72
1514801201.44,785,8.5,72720.0,2.07,-22.83,-22.87,0,*76
1514801202.63,786,8.5,72720.0,2.07,-22.87,-22.87,0,*71
1514801203.85,787,8.5,72718.5,2.07,-23.09,-23.23,0,*78
1514801205.07,788,8.56,72720.3,2.07,-23.09,-23.23,0,*77
1514801206.26,789,8.5,72720.8,2.07,-22.97,-23.13,0,*73
1514801207.45,790,8.56,72722.5,2.07,-22.97,-23.13,0,*7B
1514801208.69,791,8.5,72722.5,2.05,-23.03,-23.13,0,*74
1514801209.88,792,8.5,72720.8,2.07,-22.93,-22.97,0,*70
1514801211.08,793,8.5,72722.8,2.07,-22.97,-23.09,0,*73
1514801212.27,794,8.5,72720.0,2.07,-22.97,-23.09,0,*74
1514801213.49,795,8.5,72720.8,2.05,-22.83,-22.97,0,*74
1514801214.73,796,8.56,72720.3,2.05,-23.03,-23.13,0,*73
1514801215.92,797,8.5,72722.3,2.07,-22.83,-22.97,0,*74
1514801217.14,798,8.5,72720.8,2.07,-22.77,-22.93,0,*74
1514801218.36,799,8.5,72720.3,2.05,-22.83,-22.97,0,*78
1514801219.6,800,8.5,72718.8,2.05,-22.87,-23.19,0,*74
1514801220.79,801,8.5,72720.0,2.07,-22.93,-23.09,0,*73
1514801221.99,802,8.56,72720.0,2.07,-22.93,-23.09,0,*70
1514801223.23,803,8.5,72716.0,2.05,-22.87,-23.03,0,*7C
1514801224.42,804,8.5,72720.0,2.07,-22.93,-23.09,0,*76
1514801225.66,805,8.5,72716.0,2.05,-22.73,-22.97,0,*7D
1514801226.88,806,8.5,72720.0,2.07,-22.73,-22.97,0,*7C
1514801228.07,807,8.5,72722.0,2.07,-22.93,-23.09,0,*75
1514801229.26,808,8.5,72722.0,2.07,-22.93,-23.09,0,*7A
1514801230.48,809,8.56,72720.3,2.05,-22.97,-23.13,0,*76
1514801231.7,810,8.5,72718.0,2.05,-22.97,-23.13,0,*7E
1514801232.95,811,8.5,72720.0,2.05,-22.83,-23.03,0,*7B
1514801234.17,812,8.56,72722.0,2.05,-22.97,-23.13,0,*7C
1514801235.43,813,8.56,72722.8,2.05,-23.03,-23.29,0,*78
1514801236.67,814,8.5,72718.8,2.05,-23.13,-23.33,0,*75
1514801237.89,815,8.56,72722.8,2.05,-23.13,-23.43,0,*73
1514801239.16,816,8.5,72718.3,2.05,-23.03,-23.33,0,*76
1514801240.4,817,8.5,72718.8,2.05,-22.83,-23.03,0,*7D
1514801241.61,818,8.5,72718.0,2.05,-22.87,-23.13,0,*77
1514801242.8,819,8.5,72722.3,2.07,-22.83,-23.09,0,*7B
1514801244.02,820,8.5,72722.3,2.05,-22.83,-23.13,0,*78
1514801245.24,821,8.5,72718.5,2.05,-22.83,-23.13,0,*79
1514801246.48,822,8.5,72720.0,2.05,-22.97,-23.33,0,*7D
1514801247.72,823,8.5,72722.3,2.05,-23.13,-23.33,0,*71
1514801248.98,824,8.5,72718.3,2.05,-23.03,-23.29,0,*7C
1514801250.22,825,8.5,72720.0,2.05,-22.97,-23.29,0,*71
1514801251.47,826,8.5,72720.0,2.05,-22.97,-23.29,0,*72
1514801252.66,827,8.5,72718.8,2.03,-22.83,-23.13,0,*79
1514801253.88,828,8.56,72722.3,2.01,-22.83,-23.09,0,*7F
1514801255.12,829,8.5,72720.5,2.03,-22.73,-23.03,0,*79
1514801256.31,830,8.5,72720.0,2.03,-22.67,-22.87,0,*79
1514801257.52,831,8.56,72722.3,2.05,-22.67,-22.87,0,*7E
1514801258.79,832,8.5,72716.0,2.05,-22.73,-23.03,0,*75
1514801260.01,833,8.5,72718.3,2.03,-22.83,-23.03,0,*7D
1514801261.2,834,8.5,72722.0,2.03,-22.67,-23.13,0,*71
1514801262.39,835,8.5,72718.0,2.03,-22.67,-22.87,0,*7C
1514801263.6,836,8.5,72716.8,2.05,-22.67,-22.87,0,*79
1514801264.82,837,8.56,72722.5,2.05,-22.83,-23.13,0,*7E
1514801266.03,838,8.5,72720.8,2.05,-22.67,-22.87,0,*77
1514801267.3,839,8.56,72720.5,2.05,-22.73,-23.03,0,*7E
1514801268.54,840,8.5,72722.3,2.05,-22.67,-23.03,0,*75
1514801269.76,841,8.56,72722.8,2.05,-22.57,-22.87,0,*7A
1514801270.98,842,8.5,72720.5,2.05,-22.57,-22.87,0,*79
1514801272.22,843,8.5,72720.8,2.05,-22.73,-22.87,0,*7E
1514801273.44,844,8.5,72720.0,2.05,-22.67,-22.97,0,*7D
1514801274.68,845,8.56,72720.5,2.03,-22.73,-23.03,0,*73
1514801275.87,846,8.5,72720.3,2.03,-22.67,-22.87,0,*78
1514801277.07,847,8.5,72718.3,2.03,-22.57,-22.83,0,*7E
1514801278.26,848,8.56,72722.8,2.03,-22.67,-22.87,0,*76
1514801279.5,849,8.5,72720.8,2.05,-22.73,-22.97,0,*75
1514801280.69,850,8.5,72722.3,2.03,-22.67,-22.97,0,*7E
1514801281.92,851,8.56,72722.3,2.05,-22.57,-22.97,0,*7A
1514801283.14,852,8.5,72720.0,2.05,-22.57,-22.87,0,*78
1514801284.36,853,8.5,72720.5,2.05,-22.57,-22.87,0,*79
1514801285.62,854,8.5,72718.5,2.05,-22.47,-22.73,0,*74
1514801286.89,855,8.5,72716.3,2.05,-22.47,-22.73,0,*75
1514801288.14,856,8.56,72720.3,2.05,-22.53,-22.73,0,*73
1514801289.36,857,8.5,72716.0,2.05,-22.53,-22.83,0,*7D
1514801290.6,858,8.5,72718.0,2.05,-22.57,-22.73,0,*79
1514801291.79,859,8.56,72722.5,2.07,-22.41,-22.63,0,*7C
1514801293.03,860,8.56,72720.8,2.05,-22.47,-22.67,0,*76
1514801294.28,861,8.56,72722.8,2.05,-22.47,-22.67,0,*77
1514801295.54,862,8.5,72720.0,2.05,-22.47,-22.73,0,*71
1514801296.81,863,8.5,72720.3,2.05,-22.47,-22.73,0,*70
1514801298.05,864,8.56,72722.8,2.05,-22.53,-22.73,0,*72
1514801299.3,865,8.5,72718.8,2.05,-22.53,-22.73,0,*73
1514801300.51,866,8.5,72716.5,2.07,-22.63,-22.77,0,*75
1514801301.74,867,8.56,72722.8,2.05,-22.67,-22.73,0,*76
1514801302.96,868,8.5,72720.0,2.05,-22.57,-22.87,0,*71
1514801304.18,869,8.56,72722.5,2.05,-22.67,-22.83,0,*77
1514801305.39,870,8.56,72722.8,2.05,-22.67,-22.83,0,*7F
1514801306.63,871,8.56,72720.0,2.05,-22.73,-22.83,0,*7B
1514801307.85,872,8.5,72720.0,2.05,-22.67,-22.83,0,*7D
1514801309.09,873,8.5,72716.3,2.05,-22.73,-22.83,0,*79
1514801310.3,874,8.5,72720.0,2.05,-22.83,-22.97,0,*74
1514801311.5,875,8.56,72722.8,2.03,-22.67,-22.87,0,*78
1514801312.71,876,8.56,72722.8,2.03,-22.73,-22.83,0,*7A
1514801313.93,877,8.56,72722.5,2.03,-22.73,-22.97,0,*7E
1514801315.14,878,8.5,72718.3,2.03,-22.73,-22.87,0,*70
1514801316.36,879,8.56,72720.3,2.03,-22.57,-22.73,0,*7C
1514801317.61,880,8.5,72718.8,2.01,-22.77,-22.93,0,*74
1514801318.82,881,8.56,72720.0,2.03,-22.73,-22.83,0,*72
1514801320.01,882,8.5,72722.0,2.03,-22.67,-22.83,0,*74
1514801321.22,883,8.5,72720.0,2.01,-22.87,-22.87,0,*7D
1514801322.44,884,8.56,72720.0,2.03,-22.63,-22.77,0,*7D
1514801323.65,885,8.56,72724.0,2.03,-22.67,-22.73,0,*7C
1514801324.87,886,8.5,72718.8,2.03,-22.67,-22.73,0,*7F
1514801326.1,887,8.5,72722.8,2.03,-22.73,-22.73,0,*7B
1514801327.34,888,8.56,72720.0,2.01,-22.63,-22.73,0,*77
1514801328.56,889,8.56,72722.0,2.01,-22.53,-22.57,0,*73
1514801329.79,890,8.56,72722.5,2.01,-22.63,-22.73,0,*7E
1514801330.98,891,8.5,72722.3,2.03,-22.37,-22.67,0,*79
1514801332.21,892,8.5,72718.8,2.03,-22.37,-22.47,0,*78